FW5480 Weather Reports


time (UTC)temp
C
wind
direction
speed
KPH
gust
KPH
rain 1hr
cm
rain 24hr
cm
rain mn
cm
humidity
%
barometer
mb
20260507072516 7 0.0 0.0 0.08 0.97 0.08 96 1005.9
20260507071516 7 0.0 0.0 0.08 0.97 0.08 96 1005.6
20260507070557 7 0.0 0.0 0.05 0.94 0.05 96 1005.9
20260507065516 7 0.0 0.0 0.03 0.91 0.03 96 1006.1
20260507064517 7 0.0 0.0 0.03 0.91 0.03 96 1005.8
20260507063516 8 0.0 0.0 0.00 0.89 0.00 96 1005.7
20260507062517 8 0.0 0.0 0.00 0.89 0.00 96 1005.2
20260507061516 8 0.0 0.0 0.00 0.89 0.00 96 1005.6
20260507060517 8 0.0 0.0 0.00 0.89 0.00 96 1005.0
20260507055517 8 0.0 0.0 0.00 0.89 0.00 95 1005.8
20260507054517 8 0.0 0.0 0.00 0.89 0.00 95 1005.8
20260507053516 8 0.0 0.0 0.00 0.89 0.00 95 1006.1
20260507052537 8 0.0 0.0 0.00 0.89 0.00 95 1006.0
20260507051536 8 0.0 1.6 0.00 0.89 0.00 95 1006.0
20260507050516 8 0.0 0.0 0.00 0.89 0.00 96 1006.4
20260507045516 8 0.0 1.6 0.00 0.89 0.00 96 1006.3
20260507044516 8 0.0 0.0 0.00 0.89 0.00 96 1006.4
20260507043516 9 0.0 0.0 0.00 0.89 0.00 96 1006.4
20260507042517 9 0.0 0.0 0.00 0.89 0.00 96 1006.2
20260507041516 9 0.0 0.0 0.00 0.89 0.00 96 1006.2
20260507040516 9 0.0 0.0 0.00 0.89 0.00 96 1006.0
20260507035537 9 0.0 0.0 0.00 0.89 0.89 96 1006.1
20260507034516 9 0.0 1.6 0.00 0.89 0.89 95 1006.0
20260507033517 9 0.0 0.0 0.00 0.89 0.89 96 1006.2
20260507032516 9 0.0 1.6 0.03 0.89 0.89 95 1006.1
20260507031516 9 0.0 1.6 0.03 0.89 0.89 95 1006.0
20260507030516 10 0.0 1.6 0.05 0.89 0.89 95 1006.1
20260507025516 10 0.0 1.6 0.05 0.89 0.89 95 1005.8
20260507024516 10 0.0 1.6 0.10 0.89 0.89 95 1005.8
20260507023516 10 0.0 3.2 0.10 0.89 0.89 95 1005.9
20260507022516 10 0.0 3.2 0.08 0.86 0.86 95 1005.9
20260507021516 11 315 1.6 4.8 0.08 0.86 0.86 94 1005.5
20260507020537 11 0.0 3.2 0.05 0.84 0.84 95 1005.7
20260507015536 12 0.0 3.2 0.08 0.84 0.84 96 1005.8
20260507014536 12 0.0 1.6 0.05 0.79 0.79 96 1005.9
20260507013516 12 0.0 1.6 0.10 0.79 0.79 96 1005.5
20260507012516 13 0.0 1.6 0.10 0.79 0.79 96 1005.2
20260507011516 13 0.0 6.4 0.10 0.79 0.79 97 1005.0
20260507010516 13 0.0 1.6 0.10 0.79 0.79 97 1004.9
20260507005517 13 0.0 4.8 0.08 0.76 0.76 97 1004.7
20260507004516 13 0.0 1.6 0.05 0.74 0.74 97 1004.5
20260507003516 13 0.0 3.2 0.03 0.69 0.69 97 1004.5
20260507002537 13 0.0 3.2 0.03 0.69 0.69 97 1004.5
20260507001516 13 90 1.6 9.7 0.03 0.69 0.69 96 1004.4
20260507000515 13 0.0 1.6 0.03 0.69 0.69 96 1004.4
20260506235516 13 135 1.6 4.8 0.03 0.69 0.69 96 1004.1
20260506234516 13 0.0 3.2 0.03 0.69 0.69 96 1003.9
20260506233516 13 90 1.6 6.4 0.00 0.66 0.66 96 1003.9
20260506232517 13 90 1.6 4.8 0.00 0.66 0.66 96 1003.8
20260506231516 13 90 1.6 4.8 0.00 0.66 0.66 96 1003.7
20260506230535 13 0.0 1.6 0.00 0.66 0.66 96 1003.7
20260506225516 13 225 1.6 11.3 0.08 0.66 0.66 96 1003.6
20260506224515 13 90 1.6 4.8 0.18 0.66 0.66 96 1003.6
20260506223536 13 315 1.6 16.1 0.20 0.66 0.66 96 1003.6
20260506222536 13 0.0 1.6 0.20 0.66 0.66 96 1003.6
20260506221516 13 0.0 3.2 0.20 0.66 0.66 96 1003.5
20260506220516 13 315 1.6 6.4 0.20 0.66 0.66 96 1003.5
20260506215537 13 0.0 4.8 0.13 0.58 0.58 96 1003.7
20260506214515 13 0.0 3.2 0.03 0.48 0.48 96 1003.6
20260506213516 13 0.0 3.2 0.05 0.46 0.46 96 1003.8
20260506212516 13 0.0 3.2 0.08 0.46 0.46 96 1003.6
20260506211517 13 0.0 4.8 0.10 0.46 0.46 96 1003.6
20260506210516 13 0.0 1.6 0.10 0.46 0.46 95 1003.8
20260506205516 13 315 1.6 4.8 0.15 0.46 0.46 95 1003.7
20260506204515 13 315 1.6 4.8 0.18 0.46 0.46 95 1003.8
20260506203516 13 0.0 3.2 0.15 0.41 0.41 95 1003.8
20260506202515 13 315 1.6 6.4 0.15 0.38 0.38 95 1003.9
20260506201515 13 0.0 1.6 0.15 0.36 0.36 95 1004.2
20260506200515 13 315 1.6 9.7 0.18 0.36 0.36 95 1004.2
20260506195517 13 0.0 4.8 0.13 0.30 0.30 95 1004.4
20260506194515 13 0.0 4.8 0.13 0.28 0.28 95 1004.4
20260506193515 13 315 1.6 6.4 0.10 0.25 0.25 95 1004.4
20260506192515 13 315 1.6 6.4 0.10 0.23 0.23 95 1004.7
20260506191535 13 0.0 1.6 0.08 0.20 0.20 94 1004.8
20260506190537 13 315 1.6 6.4 0.05 0.18 0.18 94 1004.6
20260506185515 14 0.0 3.2 0.08 0.18 0.18 94 1004.8
20260506184515 14 0.0 3.2 0.08 0.15 0.15 93 1004.8
20260506183535 14 0.0 3.2 0.13 0.15 0.15 93 1004.9
20260506182515 15 0.0 3.2 0.10 0.13 0.13 93 1005.0
20260506181515 15 0.0 3.2 0.13 0.13 0.13 92 1004.9
20260506180555 15 0.0 3.2 0.13 0.13 0.13 92 1004.9
20260506175515 15 0.0 4.8 0.10 0.10 0.10 92 1005.2
20260506174515 15 0.0 1.6 0.08 0.08 0.08 91 1005.4
20260506173515 15 0.0 3.2 0.03 0.03 0.03 90 1005.7
20260506172535 16 0.0 1.6 0.03 0.03 0.03 89 1005.9
20260506171536 16 315 1.6 4.8 0.00 0.00 0.00 86 1005.9
20260506170515 16 0.0 3.2 0.00 0.00 0.00 83 1006.1
20260506165515 17 0.0 3.2 0.00 0.00 0.00 80 1006.0
20260506164515 17 315 1.6 8.0 0.00 0.00 0.00 78 1006.0
20260506163515 17 0.0 4.8 0.00 0.00 0.00 77 1006.0
20260506162515 17 0.0 3.2 0.00 0.00 0.00 78 1006.2
20260506161515 17 0.0 3.2 0.00 0.00 0.00 78 1006.4
20260506160515 17 315 1.6 3.2 0.00 0.00 0.00 79 1006.5
20260506155515 17 315 1.6 3.2 0.00 0.00 0.00 79 1006.7
20260506154515 16 0.0 3.2 0.00 0.00 0.00 80 1006.9
20260506153515 16 0.0 6.4 0.00 0.00 0.00 80 1006.9
20260506152515 16 315 1.6 4.8 0.00 0.00 0.00 79 1007.2
20260506151515 16 0.0 3.2 0.00 0.00 0.00 80 1007.2
20260506150515 16 0.0 1.6 0.00 0.00 0.00 81 1007.3
20260506145517 16 68 1.6 11.3 0.00 0.00 0.00 81 1007.3
20260506144517 16 68 1.6 8.0 0.00 0.00 0.00 81 1007.3
20260506143517 16 68 1.6 4.8 0.00 0.00 0.00 81 1007.3
20260506142517 16 0.0 4.8 0.00 0.00 0.00 81 1007.2
20260506141515 16 68 1.6 9.7 0.00 0.00 0.00 81 1007.3
20260506140517 16 68 1.6 4.8 0.00 0.00 0.00 82 1007.3
20260506135516 16 68 3.2 8.0 0.00 0.00 0.00 82 1007.0
20260506134517 16 0.0 1.6 0.00 0.00 0.00 82 1007.1
20260506133517 16 68 1.6 4.8 0.00 0.00 0.00 82 1007.1
20260506132517 16 68 1.6 8.0 0.00 0.00 0.00 82 1007.0
20260506131517 16 135 1.6 9.7 0.00 0.00 0.00 82 1007.3
20260506130517 16 135 1.6 4.8 0.00 0.00 0.00 83 1007.3
20260506125517 15 0.0 3.2 0.00 0.00 0.00 85 1007.4
20260506124517 15 135 1.6 4.8 0.00 0.00 0.00 85 1007.5
20260506123517 15 135 1.6 4.8 0.00 0.00 0.00 86 1007.6
20260506122517 15 135 1.6 6.4 0.00 0.00 0.00 86 1007.7
20260506121516 14 0.0 3.2 0.00 0.00 0.00 87 1007.6
20260506120517 14 0.0 3.2 0.00 0.00 0.00 87 1007.8
20260506115517 14 0.0 3.2 0.00 0.00 0.00 88 1007.6
20260506114517 13 135 1.6 4.8 0.00 0.00 0.00 88 1007.6
20260506113537 13 135 1.6 3.2 0.00 0.00 0.00 88 1007.8
20260506112517 13 0.0 3.2 0.00 0.00 0.00 88 1007.7
20260506111516 13 135 1.6 4.8 0.00 0.00 0.00 89 1007.8
20260506110517 13 135 1.6 6.4 0.00 0.00 0.00 90 1008.1
20260506105517 13 0.0 4.8 0.00 0.00 0.00 90 1008.1
20260506104536 13 68 1.6 3.2 0.00 0.00 0.00 90 1008.2
20260506103517 13 0.0 3.2 0.00 0.00 0.00 90 1008.1
20260506102516 12 68 1.6 3.2 0.00 0.00 0.00 91 1007.7
20260506101537 12 68 1.6 3.2 0.00 0.00 0.00 91 1008.0
20260506100516 12 0.0 1.6 0.00 0.00 0.00 91 1007.7
20260506095516 12 0.0 3.2 0.00 0.00 0.00 90 1007.8
20260506094516 12 68 1.6 3.2 0.00 0.00 0.00 90 1007.9
20260506093516 12 68 1.6 3.2 0.00 0.00 0.00 89 1007.9
20260506092543 12 68 3.2 12.9 0.00 0.00 0.00 89 1007.9
20260506091518 12 68 1.6 3.2 0.00 0.00 0.00 89 1008.0
20260506090517 12 0.0 3.2 0.00 0.00 0.00 88 1008.0
20260506085516 12 68 1.6 9.7 0.00 0.00 0.00 88 1007.9
20260506084516 12 0.0 1.6 0.00 0.00 0.00 88 1008.1
20260506083516 12 135 1.6 4.8 0.00 0.00 0.00 88 1008.2
20260506082536 12 0.0 3.2 0.00 0.00 0.00 88 1008.1
20260506081516 12 0.0 3.2 0.00 0.00 0.00 88 1008.2
20260506080516 12 0.0 1.6 0.00 0.00 0.00 87 1008.2
20260506073516 13 0.0 1.6 0.00 0.00 0.00 86 1008.3